TIANWANG 1A (TW-1A)
1 40928U 15051D   19305.78567603  .00003560  00000-0  86927-4 0  9995
2 40928  97.1334 334.0439 0009377 305.2154 143.3833 15.41451615230131
LAPAN A2
1 40931U 15052B   19302.40879780  .00000597  00000-0 -58682-5 0  9994
2 40931   5.9847 190.0824 0011407 235.6408 124.5275 14.76615343220917
LQSAT
1 40958U 15057A   19305.75500997  .00000029  00000-0  12109-4 0  9992
2 40958  97.8848  11.1759 0018682 160.6728 199.5193 14.73094411218834
CHUBUSAT 2
1 41338U 16012B   19304.56208460  .00000390  00000-0  23615-4 0  9990
2 41338  31.0044   7.6244 0013846 358.8863   1.1740 15.00201705203187
CHUBUSAT 3
1 41339U 16012C   19305.51386582  .00000410  00000-0  25088-4 0  9998
2 41339  31.0116 359.4928 0013521  15.3957 344.7094 15.00374206203325
OUFTI-1
1 41458U 16025C   19305.73306895  .00001937  00000-0  10213-3 0  9995
2 41458  98.1007  39.4998 0164169 259.4658  98.8037 15.06136750193043
E-STAR-2
1 41459U 16025D   19305.84916701  .00001740  00000-0  92877-4 0  9990
2 41459  98.0999  39.2007 0165368 260.5324  97.7163 15.05755512193036
AAUSAT 4
1 41460U 16025E   19305.84957152  .00002600  00000-0  13317-3 0  9994
2 41460  98.0948  40.8002 0155277 251.8479 106.5760 15.07761863193183
NUSAT 1
1 41557U 16033B   19305.85848645  .00001498  00000-0  58336-4 0  9992
2 41557  97.4141  32.5576 0014006 170.1017 190.0500 15.27493999190874
BEESAT 4
1 41619U 16040W   19305.69282669  .00001584  00000-0  69407-4 0  9996
2 41619  97.3524   5.2885 0009593 264.1936  95.8207 15.23422446174565
PRATHAM
1 41783U 16059A   19305.77036464  .00000059  00000-0  20646-4 0  9995
2 41783  98.0514   2.2327 0032563 317.7221  42.1471 14.63017553165444
ALSAT 1N
1 41789U 16059G   19305.71112235  .00000118  00000-0  31291-4 0  9990
2 41789  98.0547   4.4694 0027207 306.7753  53.0951 14.64272377165558
NAYIF 1
1 42017U 17008BX  19305.72566992  .00001763  00000-0  71665-4 0  9990
2 42017  97.3890  11.3358 0007582  59.0848 301.1135 15.25852766150668
MAX VALIER SAT
1 42778U 17036P   19305.74351762  .00001121  00000-0  51680-4 0  9997
2 42778  97.3386   0.3068 0014017 105.3696 254.9090 15.22221840130938
